sat.trackr.live / text

‹ back to catalog

STARLINK-35304

NORAD 66249 · 2025-245R

PAYLOAD ACTIVE UNKNOWN

§ Identity

Operator
Country
US
Launch date
2025-10-29
Launch site
AFETR
Launch vehicle
Mass (kg)
RCS (m²)

Purposes: comms

External: N2YO · Heavens-Above · Gunter

§ Orbital elements

Epoch: 2026-05-24T21:07:56.973792Z

Period
94.10 min
Inclination
53.1588°
Eccentricity
0.0001111
Mean motion
15.30211299 rev/d
Perigee alt
474.4 km
Apogee alt
475.9 km
Semi-major
6,853.3 km
B*
6.1479e-4
RAAN
289.8537°
Arg perigee
68.4168°
Mean anomaly
291.6951°
Rev number
3,270

§ Raw data

STARLINK-353041 66249U 25245R   26144.88052053  .00017899  00000+0  61479-3 0  99962 66249  53.1588 289.8537 0001111  68.4168 291.6951 15.30211299 32706

JSON: /api/v1/satellites/66249 · /tle

For live sub-satellite position, see the globe view (requires WebGL).

§ Visibility from observer

Set your observer location to see the next 7 days of passes ≥ 10°. The values pass through the URL so the page stays shareable.

No JS? Fill the form by hand. The geolocation button needs JavaScript.